User: anonymous   Login
Location: Killam
(52.7910°N, 111.8608°W)
Time: 09:44:58
(UTC+00:00)
Language:

NOAA 16 DEB - Orbit

View from above orbital plane
View from above orbital plane
View from above satellite
View from above satellite

Ground track
Ground track

The orbit data is extracted from the following two-line orbital elements,

1 41091U 00055BA  24146.19707737  .00010030  00000-0  48342-2 0  9990
2 41091  98.9668 244.0192 0053895 194.9949 164.9630 14.18105207435943
Epoch (UTC): 25 May 2024 04:43:47
Eccentricity: 0.0053895
inclination: 98.9668°
perigee height: 793 km
apogee height: 870 km
right ascension of ascending node: 244.0192°
argument of perigee: 194.9949°
revolutions per day: 14.18105207
mean anomaly at epoch: 164.9630°
orbit number at epoch: 43594

The dashed part of the orbit path shows where the satellite is in the earth's shadow,  

DLR